When you browse on this site, cookies collect data to enhance your experience and personalize the content and advertising you see.
Visit our Privacy Policy to learn more. By continuing to use the site, you agree to this use of cookies and data.
  • In Hungary
  • List of Countries
  • For 7 days
  • Water Temperature
  • Weather Map
  • News
  • Weather Widgets
  • user-avatar
    Login

    Hourly Weather Dubivtsi

    Today, 20 August, Tuesday

    Time Temperature Precipitation Wind Pressure Humidity
    00:00 +21°C° 0 mm 2 mps 733 mmHg 66%
    01:00 +20°C° 0 mm 2 mps 733 mmHg 64%
    02:00 +20°C° 0 mm 2 mps 733 mmHg 62%
    03:00 +19°C° 0 mm 2 mps 733 mmHg 62%
    04:00 +19°C° 0 mm 2 mps 734 mmHg 62%
    05:00 +19°C° 0 mm 2 mps 734 mmHg 61%
    06:00 +20°C° 0 mm 2 mps 734 mmHg 62%
    07:00 +21°C° 0 mm 2 mps 734 mmHg 62%
    08:00 +23°C° 0 mm 2 mps 735 mmHg 62%
    09:00 +25°C° 0 mm 2 mps 735 mmHg 58%
    10:00 +26°C° 0 mm 2 mps 735 mmHg 55%
    11:00 +28°C° 0 mm 2 mps 735 mmHg 51%
    12:00 +29°C° 0 mm 2 mps 735 mmHg 50%
    13:00 +29°C° 0 mm 2 mps 735 mmHg 48%
    14:00 +30°C° 0 mm 2 mps 735 mmHg 47%
    15:00 +30°C° 0 mm 1 mps 735 mmHg 48%
    16:00 +30°C° 0 mm 1 mps 735 mmHg 49%
    17:00 +30°C° 0 mm 1 mps 735 mmHg 50%
    18:00 +28°C° 0 mm 1 mps 735 mmHg 53%
    19:00 +26°C° 0 mm 1 mps 735 mmHg 56%
    20:00 +24°C° 0 mm 2 mps 735 mmHg 59%
    21:00 +23°C° 0 mm 2 mps 735 mmHg 59%
    22:00 +23°C° 0 mm 2 mps 735 mmHg 58%
    23:00 +21°C° 0 mm 2 mps 735 mmHg 58%

    Tomorrow, 21 August, Wednesday

    Time Temperature Precipitation Wind Pressure Humidity
    00:00 +21°C° 0 mm 2 mps 735 mmHg 58%
    01:00 +20°C° 0 mm 2 mps 735 mmHg 57%
    02:00 +20°C° 0 mm 3 mps 735 mmHg 57%
    03:00 +19°C° 0 mm 3 mps 734 mmHg 58%
    04:00 +19°C° 0 mm 3 mps 734 mmHg 59%
    05:00 +18°C° 0 mm 3 mps 734 mmHg 61%
    06:00 +20°C° 0 mm 3 mps 734 mmHg 60%
    07:00 +21°C° 0 mm 3 mps 734 mmHg 59%
    08:00 +22°C° 0 mm 3 mps 735 mmHg 59%
    09:00 +25°C° 0 mm 3 mps 735 mmHg 55%
    10:00 +27°C° 0 mm 3 mps 735 mmHg 51%
    11:00 +29°C° 0 mm 3 mps 735 mmHg 47%
    12:00 +29°C° 0 mm 3 mps 735 mmHg 44%
    13:00 +30°C° 0 mm 3 mps 735 mmHg 41%
    14:00 +31°C° 0 mm 2 mps 735 mmHg 38%
    15:00 +31°C° 0 mm 2 mps 734 mmHg 40%
    16:00 +31°C° 0 mm 1 mps 734 mmHg 42%
    17:00 +31°C° 0 mm 1 mps 734 mmHg 43%
    18:00 +28°C° 0.1 mm 2 mps 734 mmHg 56%
    19:00 +26°C° 0.1 mm 3 mps 735 mmHg 69%
    20:00 +22°C° 0.1 mm 4 mps 735 mmHg 82%
    21:00 +21°C° 0.3 mm 5 mps 735 mmHg 86%
    22:00 +20°C° 0.3 mm 5 mps 736 mmHg 90%
    23:00 +20°C° 0.3 mm 6 mps 736 mmHg 93%

    Day after tomorrow, 22 August, Thursday

    Time Temperature Precipitation Wind Pressure Humidity
    00:00 +19°C° 0.2 mm 5 mps 736 mmHg 93%
    01:00 +17°C° 0.2 mm 5 mps 736 mmHg 93%
    02:00 +16°C° 0.2 mm 5 mps 736 mmHg 94%
    03:00 +17°C° 0 mm 4 mps 736 mmHg 94%
    04:00 +15°C° 0 mm 4 mps 736 mmHg 94%
    05:00 +15°C° 0 mm 4 mps 736 mmHg 94%
    06:00 +15°C° 0 mm 4 mps 737 mmHg 93%
    07:00 +16°C° 0 mm 3 mps 737 mmHg 92%
    08:00 +16°C° 0 mm 3 mps 737 mmHg 91%
    09:00 +16°C° 0 mm 3 mps 737 mmHg 90%
    10:00 +17°C° 0 mm 3 mps 738 mmHg 88%
    11:00 +17°C° 0 mm 3 mps 738 mmHg 87%
    12:00 +17°C° 0 mm 3 mps 738 mmHg 85%
    13:00 +18°C° 0 mm 3 mps 737 mmHg 83%
    14:00 +18°C° 0 mm 3 mps 737 mmHg 81%
    15:00 +19°C° 0 mm 3 mps 737 mmHg 80%
    16:00 +19°C° 0 mm 3 mps 737 mmHg 78%
    17:00 +19°C° 0 mm 3 mps 737 mmHg 77%
    18:00 +19°C° 0 mm 2 mps 737 mmHg 78%
    19:00 +19°C° 0 mm 2 mps 738 mmHg 80%
    20:00 +19°C° 0 mm 1 mps 738 mmHg 81%
    21:00 +19°C° 0 mm 1 mps 738 mmHg 84%
    22:00 +18°C° 0 mm 1 mps 738 mmHg 87%
    23:00 +16°C° 0 mm 1 mps 738 mmHg 90%

    23 August, Friday

    Time Temperature Precipitation Wind Pressure Humidity
    00:00 +16°C° 0 mm 1 mps 738 mmHg 91%
    01:00 +15°C° 0 mm 2 mps 738 mmHg 92%
    02:00 +15°C° 0 mm 2 mps 738 mmHg 94%
    03:00 +14°C° 0 mm 2 mps 738 mmHg 94%
    04:00 +14°C° 0 mm 2 mps 738 mmHg 95%
    05:00 +14°C° 0 mm 2 mps 738 mmHg 95%
    06:00 +15°C° 0 mm 2 mps 738 mmHg 91%
    07:00 +17°C° 0 mm 2 mps 738 mmHg 86%
    08:00 +18°C° 0 mm 3 mps 739 mmHg 81%
    09:00 +19°C° 0 mm 3 mps 739 mmHg 74%
    10:00 +21°C° 0 mm 3 mps 739 mmHg 67%
    11:00 +22°C° 0 mm 4 mps 739 mmHg 59%
    12:00 +23°C° 0 mm 4 mps 739 mmHg 56%
    13:00 +25°C° 0 mm 4 mps 739 mmHg 53%
    14:00 +25°C° 0 mm 4 mps 739 mmHg 50%
    15:00 +25°C° 0 mm 4 mps 739 mmHg 52%
    16:00 +25°C° 0 mm 4 mps 738 mmHg 54%
    17:00 +23°C° 0 mm 4 mps 738 mmHg 55%
    18:00 +21°C° 0 mm 3 mps 738 mmHg 60%
    19:00 +20°C° 0 mm 3 mps 738 mmHg 66%
    20:00 +18°C° 0 mm 2 mps 738 mmHg 71%
    21:00 +17°C° 0 mm 2 mps 738 mmHg 74%
    22:00 +16°C° 0 mm 2 mps 738 mmHg 76%
    23:00 +16°C° 0 mm 2 mps 739 mmHg 78%

    24 August, Saturday

    Time Temperature Precipitation Wind Pressure Humidity
    00:00 +15°C° 0 mm 2 mps 739 mmHg 80%
    01:00 +15°C° 0 mm 2 mps 739 mmHg 81%
    02:00 +14°C° 0 mm 2 mps 738 mmHg 83%
    03:00 +13°C° 0 mm 3 mps 738 mmHg 83%
    04:00 +12°C° 0 mm 3 mps 738 mmHg 83%
    05:00 +12°C° 0 mm 3 mps 738 mmHg 83%
    06:00 +14°C° 0 mm 3 mps 738 mmHg 80%
    07:00 +16°C° 0 mm 3 mps 738 mmHg 76%
    08:00 +18°C° 0 mm 4 mps 739 mmHg 72%
    09:00 +19°C° 0 mm 4 mps 739 mmHg 67%
    10:00 +21°C° 0 mm 4 mps 739 mmHg 62%
    11:00 +23°C° 0 mm 4 mps 739 mmHg 56%
    12:00 +23°C° 0 mm 4 mps 738 mmHg 53%
    13:00 +25°C° 0 mm 4 mps 738 mmHg 50%
    14:00 +26°C° 0 mm 4 mps 738 mmHg 47%
    15:00 +25°C° 0 mm 4 mps 737 mmHg 48%
    16:00 +25°C° 0 mm 4 mps 737 mmHg 49%
    17:00 +25°C° 0 mm 4 mps 737 mmHg 51%
    18:00 +22°C° 0 mm 4 mps 737 mmHg 55%
    19:00 +20°C° 0 mm 3 mps 736 mmHg 59%
    20:00 +18°C° 0 mm 3 mps 736 mmHg 64%
    21:00 +18°C° 0 mm 3 mps 736 mmHg 63%
    22:00 +17°C° 0 mm 4 mps 736 mmHg 63%
    23:00 +17°C° 0 mm 4 mps 736 mmHg 62%

    25 August, Sunday

    Time Temperature Precipitation Wind Pressure Humidity
    00:00 +15°C° 0 mm 4 mps 736 mmHg 63%
    01:00 +15°C° 0 mm 4 mps 736 mmHg 65%
    02:00 +16°C° 0 mm 3 mps 736 mmHg 66%
    03:00 +14°C° 0 mm 4 mps 735 mmHg 66%
    04:00 +14°C° 0 mm 4 mps 735 mmHg 65%
    05:00 +14°C° 0 mm 4 mps 735 mmHg 65%
    06:00 +15°C° 0 mm 4 mps 735 mmHg 64%
    07:00 +17°C° 0 mm 5 mps 735 mmHg 63%
    08:00 +19°C° 0 mm 5 mps 735 mmHg 62%
    09:00 +21°C° 0 mm 5 mps 735 mmHg 58%
    10:00 +23°C° 0 mm 5 mps 735 mmHg 55%
    11:00 +26°C° 0 mm 5 mps 735 mmHg 51%
    12:00 +27°C° 0 mm 5 mps 735 mmHg 48%
    13:00 +27°C° 0 mm 5 mps 735 mmHg 46%
    14:00 +28°C° 0 mm 4 mps 735 mmHg 43%
    15:00 +28°C° 0 mm 4 mps 734 mmHg 45%
    16:00 +27°C° 0 mm 4 mps 734 mmHg 47%
    17:00 +27°C° 0 mm 3 mps 734 mmHg 49%
    18:00 +25°C° 0 mm 3 mps 734 mmHg 52%
    19:00 +22°C° 0 mm 3 mps 734 mmHg 55%
    20:00 +20°C° 0 mm 3 mps 734 mmHg 58%
    21:00 +20°C° 0 mm 3 mps 734 mmHg 59%
    22:00 +19°C° 0 mm 3 mps 734 mmHg 59%
    23:00 +18°C° 0 mm 3 mps 734 mmHg 60%
    Show more